Back to catalog

INTELSAT 33E DEB

LostMEO
NORAD 64401·DEBRIS· XX

Launched Aug 24, 2016 from Guiana Space Centre

Loading…

Next Passes (next 24 hours)

TLE

StaleSource: Space-Track

Epoch: Jul 26, 2026, 14:52 UTC

1 64401U 16053AF  26207.61973246 -.00000187  00000-0  00000-0 0  9992
2 64401   1.5628  71.4430 0671253 344.5134  13.3663  1.05820814  6722

Track INTELSAT 33E DEB in real time with AllMySat

Download on the App Store